Location: North Bay Shore
(40.7362°N, 73.2626°W)
Time: 05:23:36
(UTC+00:00)

COSMO-SKYMED 1 - Pass Details

Date: 29 October 2020
Orbit: 621 x 623 km, 97.9° (Epoch: 27 November)

Event Time Altitude Azimuth Distance (km) Brightness Sun altitude
Rises 23:31:55 0° 4° (N) 2,911 6.0 -19.4°
Reaches altitude 10° 23:34:12 10° 357° (N) 2,000 5.2 -19.8°
Maximum altitude 23:38:15 39° 289° (WNW) 935 4.0 -20.6°
Drops below altitude 10° 23:42:16 10° 220° (SW) 1,985 5.7 -21.3°
Sets 23:44:33 0° 213° (SSW) 2,887 6.4 -21.8°
